Voltar ao catálogo

STARLINK-37970

AtivoComunicaçõesSSO
NORAD 69706·PAYLOAD·🇺🇸 United States

Lançado Jun 28, 2026 de Vandenberg Space Force Base

Loading…

Próximas Passagens (próximas 24 horas)

TLE

AtualizadoSource: CelesTrak SupGP

Época: Sep 14, 2026, 23:02 UTC

1 69706C 26147C   26257.96020833  .00031765  00000+0  98614-3 0  2570
2 69706  97.2841 294.3313 0001185  86.3211 155.9965 15.33420388    10

Acompanhe STARLINK-37970 em tempo real com AllMySat

Download on the App Store